Torna al catalogo

SL-3 R/B

AttivoPO
NORAD 12646·ROCKET BODY·🇷🇺 Russia

Lanciato Aug 7, 1981 da Plesetsk Cosmodrome

Loading…

Prossimi Passaggi (prossime 24 ore)

TLE

AggiornatoSource: Space-Track

Epoca: Sep 14, 2026, 07:49 UTC

1 12646U 81075B   26257.32614027  .00000034  00000-0  10067-4 0  9992
2 12646  81.2285 185.9931 0068091  66.1023  85.6444 14.16436910329320

Traccia SL-3 R/B in tempo reale con AllMySat

Download on the App Store